Flag for U.S.A. Weather past 2 weeks in Inverness, Florida, U.S.A.

86 °F


Feels Like: 92 °F
Forecast: 69 / 87 °F
Wind: 6 mph from Northeast

Location: The Villages

Current Time: Oct 9, 2015 at 1:07:55 PM

Latest Report: Oct 9, 2015 at 12:35 PM

Visibility: 10 mi

Pressure: 29.97 "Hg

Humidity: 62%

Dew point: 72 °F

Location of InvernessLocation

Historic Weather in Inverness — Graph


Inverness temperature yesterday

Maximum temperature yesterday: 86 °F (at 12:15 PM)
Minimum temperature yesterday: 66 °F (at 3:55 AM)
Average temperature yesterday: 75 °F

Past Weeks' High & Low Weather Summary

High91 °F (Sep 30, 3:55 PM)100% (Sep 25, 7:15 AM)30.00 "Hg (Sep 25, 7:15 AM)
Low61 °F (Oct 4, 4:35 AM)49% (Sep 30, 4:35 PM)29.45 "Hg (Oct 3, 4:15 AM)
Average76 °F85%29.75 "Hg
* Reported Sep 24 11:15 AM — Oct 9 11:55 AM, Inverness, Weather by CustomWeather, © 2015

Note: Actual official high and low records may vary slightly from our data, if they occured in-between our weather recording intervals... More about our weather records


Inverness weather history for previous 24 hours

Time TempWeatherWind HumidityBarometerVisibility
11:55 AM
Fri, Oct 9
84 °FWarm.7 mph66%29.98 "Hg8 mi
11:35 AM84 °FWarm.10 mph66%29.99 "Hg10 mi
11:15 AM84 °FWarm.8 mph66%29.99 "Hg10 mi
10:55 AM84 °FWarm.9 mph70%29.99 "Hg10 mi
10:15 AM81 °FWarm.8 mph79%30.00 "Hg10 mi
9:55 AM81 °FWarm.6 mph79%30.00 "Hg10 mi
9:35 AM79 °FWarm.5 mph84%30.00 "Hg10 mi
9:15 AM77 °FWarm.5 mph89%30.00 "Hg10 mi
8:55 AM75 °FMild.5 mph94%29.99 "Hg10 mi
8:35 AM73 °FMild.No wind94%29.98 "Hg10 mi
8:15 AM72 °FMild.No wind100%29.98 "Hg10 mi
7:55 AM72 °FMild.No wind94%29.97 "Hg10 mi
7:35 AM70 °FMild.No wind100%29.96 "Hg10 mi
7:15 AM70 °FMild.No wind100%29.96 "Hg10 mi
6:55 AM70 °FMild.No wind100%29.96 "Hg10 mi
6:15 AM72 °FMild.No wind94%29.95 "Hg10 mi
5:55 AM72 °FMild.No wind94%29.94 "Hg10 mi
5:35 AM72 °FMild.No wind94%29.94 "Hg10 mi
5:15 AM72 °FMild.No wind94%29.93 "Hg10 mi
4:55 AM72 °FMild.No wind94%29.93 "Hg10 mi
4:35 AM72 °FMild.No wind94%29.93 "Hg7 mi
4:15 AM70 °FMild.No wind100%29.93 "Hg10 mi
3:55 AM72 °FMild.No wind94%29.93 "Hg10 mi
3:35 AM72 °FMild.No wind94%29.93 "Hg10 mi
3:15 AM72 °FMild.No wind94%29.93 "Hg10 mi
2:55 AM72 °FMild.No wind94%29.93 "Hg10 mi
2:35 AM72 °FMild.No wind94%29.93 "Hg10 mi
2:15 AM72 °FMild.No wind94%29.94 "Hg10 mi
1:55 AM73 °FMild.No wind89%29.94 "Hg10 mi
1:35 AM73 °FMild.No wind89%29.94 "Hg10 mi
1:15 AM73 °FMild.No wind94%29.95 "Hg10 mi
12:55 AM73 °FMild.No wind89%29.96 "Hg10 mi
12:15 AM73 °FMild.No wind94%29.98 "Hg10 mi
11:55 PM
Thu, Oct 8
73 °FMild.No wind94%29.98 "Hg10 mi
11:15 PM73 °FMild.No wind94%29.98 "Hg10 mi
10:55 PM75 °FMild.No wind89%29.98 "Hg10 mi
10:35 PM75 °FMild.No wind89%29.98 "Hg10 mi
10:15 PM75 °FMild.No wind89%29.97 "Hg10 mi
9:55 PM75 °FMild.5 mph89%29.96 "Hg10 mi
9:35 PM75 °FMild.No wind89%29.96 "Hg10 mi
9:15 PM77 °FWarm.No wind83%29.96 "Hg10 mi
8:55 PM77 °FWarm.No wind83%29.95 "Hg10 mi
8:15 PM77 °FWarm.5 mph83%29.94 "Hg7 mi
7:55 PM79 °FWarm.6 mph79%29.93 "Hg10 mi
7:35 PM79 °FWarm.6 mph79%29.93 "Hg10 mi
7:15 PM79 °FWarm.5 mph79%29.92 "Hg10 mi
6:55 PM81 °FWarm.6 mph74%29.92 "Hg10 mi
6:35 PM82 °FWarm.7 mph70%29.91 "Hg10 mi
5:15 PM82 °FWarm.6 mph70%29.91 "Hg10 mi
4:55 PM84 °FWarm.10 mph66%29.91 "Hg10 mi
4:35 PM84 °FWarm.8 mph70%29.91 "Hg10 mi
4:15 PM84 °FWarm.9 mph66%29.90 "Hg10 mi
3:55 PM84 °FWarm.8 mph70%29.91 "Hg10 mi
3:35 PM82 °FWarm.10 mph70%29.91 "Hg9 mi
3:15 PM84 °FWarm.9 mph70%29.91 "Hg10 mi
2:55 PM84 °FWarm.12 mph70%29.92 "Hg8 mi
2:15 PM86 °FWarm.6 mph62%29.92 "Hg9 mi
1:55 PM84 °FWarm.5 mph66%29.93 "Hg10 mi
1:35 PM86 °FWarm.6 mph62%29.93 "HgN/A
1:15 PM86 °FWarm.9 mph59%29.94 "Hg10 mi
Weather by CustomWeather, © 2015

See weather overviewHow to use our weather pages